KB3YPI Weather Reports


Display with metric or nautical units.
time (UTC)temp
F
wind
direction
speed
MPH
gust
MPH
rain 1hr
in
rain 24hr
in
rain mn
in
humidity
%
barometer
mb
20260510083016 51 53 0.0 0.0 0.00 0.00 0.00 96 1011.0
20260510082514 51 53 0.0 0.0 0.00 0.00 0.00 96 1010.5
20260510082045 51 53 0.0 0.0 0.00 0.00 0.00 96 1010.2
20260510081545 51 53 0.0 0.0 0.00 0.00 0.00 96 1010.1
20260510081044 51 53 0.0 0.0 0.00 0.00 0.00 96 1010.0
20260510080543 51 53 0.0 0.0 0.00 0.00 0.00 96 1010.1
20260510080058 51 53 0.0 0.0 0.00 0.00 0.00 96 1010.1
20260510075543 51 53 0.0 0.0 0.00 0.00 0.00 96 1010.0
20260510075013 51 53 0.0 0.0 0.00 0.00 0.00 96 1009.8
20260510074514 51 53 0.0 0.0 0.00 0.00 0.00 96 1009.8
20260510074014 50 53 0.0 0.0 0.00 0.00 0.00 96 1009.7
20260510073513 50 53 0.0 0.0 0.00 0.00 0.00 96 1009.7
20260510073015 50 53 0.0 0.0 0.00 0.00 0.00 96 1009.7
20260510072514 50 53 0.0 0.0 0.00 0.00 0.00 96 1009.7
20260510072011 50 53 0.0 0.0 0.00 0.00 0.00 96 1009.7
20260510071510 51 53 0.0 0.0 0.00 0.00 0.00 96 1009.7
20260510071010 51 53 0.0 0.0 0.00 0.00 0.00 96 1009.7
20260510070510 51 53 0.0 0.0 0.00 0.00 0.00 96 1009.8
20260510070009 51 53 0.0 0.0 0.00 0.00 0.00 96 1010.0
20260510065510 51 53 0.0 0.0 0.00 0.00 0.00 96 1010.0
20260510065009 51 53 0.0 0.0 0.00 0.00 0.00 96 1010.0
20260510064511 51 53 0.0 0.0 0.00 0.00 0.00 96 1010.0
20260510064008 51 53 0.0 0.0 0.00 0.00 0.00 96 1010.1
20260510063508 51 53 0.0 0.0 0.00 0.00 0.00 96 1010.0
20260510063008 51 53 0.0 0.0 0.00 0.00 0.00 96 1010.1
20260510062507 51 53 0.0 0.0 0.00 0.00 0.00 97 1010.0
20260510062005 51 53 0.0 0.0 0.00 0.00 0.00 97 1010.2
20260510061505 51 53 0.0 0.0 0.00 0.00 0.00 97 1010.4
20260510061003 51 45 0.0 0.0 0.00 0.00 0.00 97 1010.7
20260510060502 50 44 0.0 0.0 0.00 0.00 0.00 97 1010.5
20260510060101 49 279 0.0 0.0 0.00 0.00 0.00 96 1010.9
20260510055559 48 360 0.0 0.0 0.00 0.00 0.00 96 1010.8
20260510055101 48 117 0.0 0.0 0.00 0.00 0.00 95 1010.0
20260510054601 48 117 0.0 0.0 0.00 0.00 0.00 95 1010.0
20260510054058 48 117 0.0 0.0 0.00 0.00 0.00 95 1010.1
20260510053557 48 117 0.0 0.0 0.00 0.00 0.00 95 1010.1
20260510053100 48 117 0.0 0.0 0.00 0.00 0.00 95 1010.1
20260510052557 48 117 0.0 0.0 0.00 0.00 0.00 95 1010.3
20260510052054 48 117 0.0 0.0 0.00 0.00 0.00 95 1010.4
20260510051605 48 117 0.0 0.0 0.00 0.00 0.00 95 1010.4
20260510051055 48 117 0.0 0.0 0.00 0.00 0.00 95 1010.3
20260510050556 48 117 0.0 0.0 0.00 0.00 0.00 95 1010.4
20260510050059 48 117 0.0 0.0 0.00 0.00 0.00 95 1010.3
20260510045550 48 117 0.0 0.0 0.00 0.00 0.00 95 1010.2
20260510045049 48 117 0.0 0.0 0.00 0.00 0.00 95 1010.1
20260510044548 48 117 0.0 0.0 0.00 0.00 0.00 95 1009.9
20260510044046 49 117 0.0 0.0 0.00 0.00 0.00 95 1009.8
20260510043546 49 117 0.0 0.0 0.00 0.00 0.00 95 1009.8
20260510043047 49 117 0.0 0.0 0.00 0.00 0.00 94 1009.7
20260510042545 49 117 0.0 0.0 0.00 0.00 0.00 94 1009.7
20260510042044 49 117 0.0 0.0 0.00 0.00 0.00 94 1009.7
20260510041542 49 117 0.0 0.0 0.00 0.00 0.00 95 1009.6
20260510041041 49 117 0.0 0.0 0.00 0.00 0.00 95 1009.6
20260510040541 49 117 0.0 0.0 0.00 0.00 0.00 94 1009.6
20260510040040 49 117 0.0 0.0 0.00 0.00 0.00 94 1009.7
20260510035540 49 117 0.0 0.0 0.00 0.00 0.00 94 1009.7
20260510035040 49 117 0.0 0.0 0.00 0.00 0.00 94 1009.7
20260510034539 49 117 0.0 0.0 0.00 0.00 0.00 94 1009.7
20260510034039 49 117 0.0 0.0 0.00 0.00 0.00 94 1009.7
20260510033542 49 117 0.0 0.0 0.00 0.00 0.00 94 1009.7
20260510033051 49 117 0.0 0.0 0.00 0.00 0.00 94 1009.8
20260510032538 49 117 0.0 0.0 0.00 0.00 0.00 94 1009.8
20260510032039 49 117 0.0 0.0 0.00 0.00 0.00 93 1009.8
20260510031539 49 117 0.0 0.0 0.00 0.00 0.00 93 1009.7
20260510031035 50 117 0.0 0.0 0.00 0.00 0.00 93 1009.6
20260510030535 50 117 0.0 0.0 0.00 0.00 0.00 93 1009.7
20260510030035 50 117 0.0 0.0 0.00 0.00 0.00 92 1009.7
20260510025535 50 117 0.0 0.0 0.00 0.00 0.00 92 1009.7
20260510025035 50 117 0.0 0.0 0.00 0.00 0.00 93 1009.6
20260510024534 50 117 0.0 0.0 0.00 0.00 0.00 93 1009.6
20260510024034 50 117 0.0 0.0 0.00 0.00 0.00 92 1009.6
20260510023533 50 117 0.0 0.0 0.00 0.00 0.00 92 1009.5
20260510023033 51 117 0.0 0.0 0.00 0.00 0.00 92 1009.5
20260510022533 51 117 0.0 0.0 0.00 0.00 0.00 92 1009.5
20260510022033 51 117 0.0 0.0 0.00 0.00 0.00 92 1009.6
20260510021507 51 117 0.0 0.0 0.00 0.00 0.00 92 1009.6
20260510021002 51 117 0.0 0.0 0.00 0.00 0.00 91 1009.5
20260510020502 51 117 0.0 0.0 0.00 0.00 0.00 91 1009.4
20260510020002 52 117 0.0 0.0 0.00 0.00 0.00 90 1009.3
20260510015502 52 117 0.0 0.0 0.00 0.00 0.00 90 1009.3
20260510015101 52 117 0.0 0.0 0.00 0.00 0.00 90 1009.2
20260510014600 52 117 0.0 0.0 0.00 0.00 0.00 90 1009.1
20260510014057 53 117 0.0 0.0 0.00 0.00 0.00 90 1009.0
20260510013556 53 117 0.0 0.0 0.00 0.00 0.00 90 1008.9
20260510013109 53 202 0.0 0.0 0.00 0.00 0.00 89 1008.9
20260510012556 53 202 0.0 0.0 0.00 0.00 0.00 89 1008.9
20260510012056 54 202 0.0 0.0 0.00 0.00 0.00 89 1008.9
20260510011556 54 202 0.0 0.0 0.00 0.00 0.00 88 1008.9
20260510011055 54 202 0.0 0.0 0.00 0.00 0.00 88 1008.9
20260510010557 55 202 0.0 0.0 0.00 0.00 0.00 88 1008.7
20260510010100 55 202 0.0 0.0 0.00 0.00 0.00 87 1008.7
20260510005555 55 202 0.0 0.0 0.00 0.00 0.00 85 1008.5
20260510005054 56 202 0.0 0.0 0.00 0.00 0.00 84 1008.5
20260510004554 56 202 0.0 0.0 0.00 0.00 0.00 85 1008.4
20260510004052 56 202 0.0 0.0 0.00 0.00 0.00 84 1008.5
20260510003553 57 202 0.0 0.0 0.00 0.00 0.00 83 1008.5
20260510003052 57 202 0.0 0.0 0.00 0.00 0.00 83 1008.6
20260510002555 58 202 0.0 0.0 0.00 0.00 0.00 82 1008.6
20260510002052 58 202 0.0 0.0 0.00 0.00 0.00 80 1008.4
20260510001552 59 202 0.0 0.0 0.00 0.00 0.00 80 1008.3
20260510001052 59 202 0.0 0.0 0.00 0.00 0.00 79 1008.2
20260510000553 59 202 0.0 0.0 0.00 0.00 0.00 79 1008.0
20260510000052 60 202 0.0 0.0 0.00 0.00 0.00 78 1008.0
20260509235551 60 202 0.0 0.0 0.00 0.00 0.00 77 1008.0
20260509235052 60 202 0.0 0.0 0.00 0.00 0.00 76 1008.0
20260509234551 60 202 0.0 0.0 0.00 0.00 0.00 76 1008.0
20260509234049 61 202 0.0 0.0 0.00 0.00 0.00 76 1008.0
20260509233547 61 202 0.0 0.0 0.00 0.00 0.00 75 1008.0
20260509233149 61 202 0.0 0.0 0.00 0.00 0.00 75 1008.0
20260509232548 61 202 0.0 0.0 0.00 0.00 0.00 74 1007.9
20260509232048 62 202 0.0 0.0 0.00 0.00 0.00 74 1007.9
20260509231549 62 205 0.0 0.0 0.00 0.00 0.00 74 1007.9
20260509231046 62 205 0.0 0.0 0.00 0.00 0.00 74 1007.9
20260509230545 62 205 0.0 0.0 0.00 0.00 0.00 73 1007.9
20260509230049 62 198 0.0 0.0 0.00 0.00 0.00 72 1008.0
20260509225545 62 198 0.0 0.0 0.00 0.00 0.00 73 1008.0
20260509225045 62 198 0.0 0.0 0.00 0.00 0.00 72 1007.9
20260509224545 63 179 0.0 0.0 0.00 0.00 0.00 72 1007.9
20260509224042 63 198 0.0 0.0 0.00 0.00 0.00 71 1007.9
20260509223543 63 194 0.0 0.0 0.00 0.00 0.00 71 1007.9
20260509223041 64 150 0.0 0.0 0.00 0.00 0.00 69 1007.9
20260509222542 64 122 0.0 0.0 0.00 0.00 0.00 71 1007.9
20260509222041 64 132 0.0 0.0 0.00 0.00 0.00 70 1008.0
20260509221541 64 116 0.0 0.0 0.00 0.00 0.00 70 1008.0
20260509221040 64 167 0.0 0.0 0.00 0.00 0.00 69 1008.0
20260509220538 64 96 0.0 0.0 0.00 0.00 0.00 70 1007.9
20260509220038 64 150 0.0 0.0 0.00 0.00 0.00 71 1008.0
20260509215537 64 166 0.0 0.0 0.00 0.00 0.00 73 1008.0
20260509215037 63 61 0.0 0.0 0.00 0.00 0.00 73 1008.1
20260509214538 63 42 0.0 0.0 0.00 0.00 0.00 73 1008.1
20260509214032 63 185 0.0 0.0 0.00 0.00 0.00 75 1008.2
20260509213530 62 90 0.0 0.0 0.00 0.00 0.00 77 1008.2
20260509213031 62 61 0.0 0.0 0.00 0.00 0.00 77 1008.3
20260509212526 61 165 0.0 0.0 0.00 0.00 0.00 78 1008.4
20260509212029 61 193 0.0 0.0 0.00 0.00 0.00 80 1008.4
20260509211524 60 121 0.0 0.0 0.00 0.00 0.00 81 1008.4
20260509211023 60 65 0.0 0.0 0.00 0.00 0.00 82 1008.5
20260509210522 60 73 0.0 0.0 0.00 0.00 0.00 83 1008.5
20260509210021 60 130 0.0 0.0 0.00 0.00 0.00 84 1008.5
20260509205519 59 82 0.0 0.0 0.00 0.00 0.00 87 1008.5
20260509205018 59 60 0.0 0.0 0.00 0.00 0.00 87 1008.7
20260509204517 58 59 0.0 0.0 0.00 0.00 0.00 88 1008.9
20260509204047 58 59 0.0 0.0 0.00 0.00 0.00 89 1008.9
20260509203546 58 59 0.0 0.0 0.00 0.00 0.00 89 1009.0
20260509203046 58 60 0.0 0.0 0.00 0.00 0.00 88 1009.1
20260509202546 57 60 0.0 0.0 0.00 0.00 0.00 88 1009.1
20260509202046 58 61 0.0 0.0 0.00 0.00 0.00 89 1009.0
20260509201545 58 360 0.0 0.0 0.00 0.00 0.00 89 1008.9
20260509201043 58 355 0.0 0.0 0.00 0.00 0.00 88 1008.8
20260509200543 58 355 0.0 0.0 0.00 0.00 0.00 87 1008.7
20260509200050 58 355 0.0 0.0 0.00 0.00 0.00 88 1008.7
20260509195541 58 355 0.0 0.0 0.00 0.00 0.00 88 1008.7
20260509195040 58 355 0.0 0.0 0.00 0.00 0.00 87 1009.0
20260509194553 58 355 0.0 0.0 0.00 0.00 0.00 85 1009.1
20260509194040 58 355 0.0 0.0 0.00 0.00 0.00 87 1009.1
20260509193539 58 355 0.0 0.0 0.00 0.00 0.00 86 1009.0
20260509193037 58 355 0.0 0.0 0.00 0.00 0.00 85 1009.1
20260509192538 59 355 0.0 0.0 0.00 0.00 0.00 85 1009.3
20260509192037 59 355 0.0 0.0 0.00 0.00 0.00 86 1009.3
20260509191536 58 355 0.0 0.0 0.00 0.00 0.00 85 1009.4
20260509191038 59 53 0.0 0.0 0.00 0.00 0.00 88 1009.5
20260509190504 58 211 0.0 0.0 0.00 0.00 0.00 87 1009.5
20260509190004 58 204 0.0 0.0 0.00 0.00 0.00 88 1009.7
20260509185503 58 205 0.0 0.0 0.00 0.00 0.00 89 1009.9
20260509185002 58 205 0.0 0.0 0.00 0.00 0.00 90 1009.9
20260509184611 57 205 0.0 0.0 0.00 0.00 0.00 90 1010.1
20260509184059 57 205 0.0 0.0 0.00 0.00 0.00 87 1010.0
20260509183531 0 0.0 0.0 0.00 0.00 0.00 1009.9
20260509183032 0 0.0 0.0 0.00 0.00 0.00 1009.9
20260509182525 0 0.0 0.0 0.00 0.00 0.00 1009.8
20260509182024 0 0.0 0.0 0.00 0.00 0.00 1009.8
20260509181522 0 0.0 0.0 0.00 0.00 0.00 1009.7
20260509181021 0 0.0 0.0 0.00 0.00 0.00 1009.7
20260509180518 0 0.0 0.0 0.00 0.00 0.00 1009.7
20260509180015 0 0.0 0.0 0.00 0.00 0.00 1009.8
20260509175514 0 0.0 0.0 0.00 0.00 0.00 1009.9
20260509175013 0 0.0 0.0 0.00 0.00 0.00 1010.0
20260509174512 0 0.0 0.0 0.00 0.00 0.00 1010.1
20260509174010 0 0.0 0.0 0.00 0.00 0.00 1010.2
20260509173507 0 0.0 0.0 0.00 0.00 0.00 1010.3
20260509173007 0 0.0 0.0 0.00 0.00 0.00 1010.4
20260509172509 0 0.0 0.0 0.00 0.00 0.00 1010.5
20260509172002 0 0.0 0.0 0.00 0.00 0.00 1010.5
20260509171501 0 0.0 0.0 0.00 0.00 0.00 1010.6
20260509171100 0 0.0 0.0 0.00 0.00 0.00 1010.6
20260509170528 0 0.0 0.0 0.00 0.00 0.00 1010.7
20260509170027 0 0.0 0.0 0.00 0.00 0.00 1010.6
20260509165525 0 0.0 0.0 0.00 0.00 0.00 1010.6
20260509165023 0 0.0 0.0 0.00 0.00 0.00 1010.6
20260509164522 0 0.0 0.0 0.00 0.00 0.00 1010.4
20260509164021 0 0.0 0.0 0.00 0.00 0.00 1010.4
20260509163521 0 0.0 0.0 0.00 0.00 0.00 1010.2
20260509163016 0 0.0 0.0 0.00 0.00 0.00 1010.1
20260509162514 0 0.0 0.0 0.00 0.00 0.00 1010.0
20260509162013 0 0.0 0.0 0.00 0.00 0.00 1009.8
20260509161512 0 0.0 0.0 0.00 0.00 0.00 1009.8
20260509161009 0 0.0 0.0 0.00 0.00 0.00 1009.9
20260509160508 0 0.0 0.0 0.00 0.00 0.00 1010.1
20260509160006 0 0.0 0.0 0.00 0.00 0.00 1010.2
20260509155506 0 0.0 0.0 0.00 0.00 0.00 1010.3
20260509155004 0 0.0 0.0 0.00 0.00 0.00 1010.5
20260509154503 0 0.0 0.0 0.00 0.00 0.00 1010.9
20260509154003 0 0.0 0.0 0.00 0.00 0.00 1011.1
20260509153559 0 0.0 0.0 0.00 0.00 0.00 1011.1
20260509153103 0 0.0 0.0 0.00 0.00 0.00 1011.3
20260509152555 0 0.0 0.0 0.00 0.00 0.00 1011.4
20260509152053 0 0.0 0.0 0.00 0.00 0.00 1011.5
20260509151552 0 0.0 0.0 0.00 0.00 0.00 1011.4
20260509151049 0 0.0 0.0 0.00 0.00 0.00 1011.3
20260509150548 0 0.0 0.0 0.00 0.00 0.00 1011.2
20260509150047 0 0.0 0.0 0.00 0.00 0.00 1011.1
20260509145547 0 0.0 0.0 0.00 0.00 0.00 1011.1
20260509145045 0 0.0 0.0 0.00 0.00 0.00 1011.1
20260509144546 0 0.0 0.0 0.00 0.00 0.00 1010.9
20260509144041 0 0.0 0.0 0.00 0.00 0.00 1010.8
20260509143540 0 0.0 0.0 0.00 0.00 0.00 1010.9
20260509143036 0 0.0 0.0 0.00 0.00 0.00 1010.9
20260509142535 0 0.0 0.0 0.00 0.00 0.00 1010.8
20260509142033 0 0.0 0.0 0.00 0.00 0.00 1010.8
20260509141538 0 0.0 0.0 0.00 0.00 0.00 1010.8
20260509141030 0 0.0 0.0 0.00 0.00 0.00 1010.6
20260509140528 0 0.0 0.0 0.00 0.00 0.00 1010.6
20260509140029 0 0.0 0.0 0.00 0.00 0.00 1010.6
20260509135525 0 0.0 0.0 0.00 0.00 0.00 1010.7
20260509135024 0 0.0 0.0 0.00 0.00 0.00 1010.6
20260509134523 0 0.0 0.0 0.00 0.00 0.00 1010.6
20260509134023 0 0.0 0.0 0.00 0.00 0.00 1010.5
20260509133520 0 0.0 0.0 0.00 0.00 0.00 1010.6
20260509133015 0 0.0 0.0 0.00 0.00 0.00 1010.5
20260509132521 0 0.0 0.0 0.00 0.00 0.00 1010.5
20260509132012 0 0.0 0.0 0.00 0.00 0.00 1010.6
20260509131511 0 0.0 0.0 0.00 0.00 0.00 1010.4
20260509131009 0 0.0 0.0 0.00 0.00 0.00 1010.3
20260509130508 0 0.0 0.0 0.00 0.00 0.00 1010.0
20260509130007 0 0.0 0.0 0.00 0.00 0.00 1009.8
20260509125505 0 0.0 0.0 0.00 0.00 0.00 1009.8
20260509125003 0 0.0 0.0 0.00 0.00 0.00 1009.8
20260509124503 0 0.0 0.0 0.00 0.00 0.00 1009.9
20260509124002 0 0.0 0.0 0.00 0.00 0.00 1010.2
20260509123600 0 0.0 0.0 0.00 0.00 0.00 1010.2
20260509123029 0 0.0 0.0 0.00 0.00 0.00 1010.5
20260509122526 0 0.0 0.0 0.00 0.00 0.00 1010.6
20260509122025 0 0.0 0.0 0.00 0.00 0.00 1010.6
20260509121524 0 0.0 0.0 0.00 0.00 0.00 1010.6
20260509121024 0 0.0 0.0 0.00 0.00 0.00 1010.5
20260509120521 0 0.0 0.0 0.00 0.00 0.00 1010.5
20260509120018 0 0.0 0.0 0.00 0.00 0.00 1010.4
20260509115515 0 0.0 0.0 0.00 0.00 0.00 1010.2
20260509115014 0 0.0 0.0 0.00 0.00 0.00 1010.1
20260509114513 0 0.0 0.0 0.00 0.00 0.00 1010.2
20260509114011 0 0.0 0.0 0.00 0.00 0.00 1010.2
20260509113510 0 0.0 0.0 0.00 0.00 0.00 1010.2
20260509113008 0 0.0 0.0 0.00 0.00 0.00 1010.0
20260509112506 0 0.0 0.0 0.00 0.00 0.00 1009.9
20260509112006 0 0.0 0.0 0.00 0.00 0.00 1010.1
20260509111505 0 0.0 0.0 0.00 0.00 0.00 1010.1
20260509111006 0 0.0 0.0 0.00 0.00 0.00 1010.0
20260509110506 0 0.0 0.0 0.00 0.00 0.00 1010.0
20260509110002 0 0.0 0.0 0.00 0.00 0.00 1009.9
20260509105558 0 0.0 0.0 0.00 0.00 0.00 1009.7
20260509105057 0 0.0 0.0 0.00 0.00 0.00 1009.7
20260509104603 0 0.0 0.0 0.00 0.00 0.00 1009.8
20260509104053 0 0.0 0.0 0.00 0.00 0.00 1009.9
20260509103552 0 0.0 0.0 0.00 0.00 0.00 1009.8
20260509103103 0 0.0 0.0 0.00 0.00 0.00 1009.8
20260509102549 0 0.0 0.0 0.00 0.00 0.00 1009.8
20260509102049 0 0.0 0.0 0.00 0.00 0.00 1009.8
20260509101547 0 0.0 0.0 0.00 0.00 0.00 1009.8
20260509101044 0 0.0 0.0 0.00 0.00 0.00 1009.7
20260509100543 0 0.0 0.0 0.00 0.00 0.00 1009.8
20260509100042 0 0.0 0.0 0.00 0.00 0.00 1009.7
20260509095513 0 0.0 0.0 0.00 0.00 0.00 1009.7
20260509095012 0 0.0 0.0 0.00 0.00 0.00 1009.6
20260509094508 0 0.0 0.0 0.00 0.00 0.00 1009.6
20260509094006 0 0.0 0.0 0.00 0.00 0.00 1009.6
20260509093505 0 0.0 0.0 0.00 0.00 0.00 1009.7
20260509093004 0 0.0 0.0 0.00 0.00 0.00 1009.9
20260509092600 0 0.0 0.0 0.00 0.00 0.00 1009.9
20260509092101 0 0.0 0.0 0.00 0.00 0.00 1009.9
20260509091557 0 0.0 0.0 0.00 0.00 0.00 1009.8
20260509091055 0 0.0 0.0 0.00 0.00 0.00 1009.8
20260509090553 0 0.0 0.0 0.00 0.00 0.00 1009.7
20260509090058 0 0.0 0.0 0.00 0.00 0.00 1009.8
20260509085550 0 0.0 0.0 0.00 0.00 0.00 1009.7
20260509085048 0 0.0 0.0 0.00 0.00 0.00 1009.7
20260509084557 0 0.0 0.0 0.00 0.00 0.00 1009.9
20260509084046 0 0.0 0.0 0.00 0.00 0.00 1010.0
20260509083545 0 0.0 0.0 0.00 0.00 0.00 1009.9
20260509083043 0 0.0 0.0 0.00 0.00 0.00 1010.1